COSMOS 1275 DEB

Satellite information

Favourite Embed

Satellite Type and Status

DEBRISIN ORBIT

Key statistics

Satellite COSMOS 1275 DEB at a glance.

Uptime

16263

Days in orbit

Revolutions

≈ 14.3

Per day

Orbit

LEO

Low Earth Orbit

Inclination

82.9

Latest

Satellite identification and parameters

Extended collection of information and parameters for COSMOS 1275 DEB.

Object identification

Identified? True

Debris? True

Object name: COSMOS 1275 DEB

International designator: 1981-053AS

Object number (NORAD): 12698

Object ID (CCSDS): 12698

Country: COMMONWEALTH OF INDEPENDENT STATES (CIS)

Current information (Y/N): Y

RCS size: SMALL

Orbital parameters

Period: 100.456 minutes

Inclination: 82.9 deg

SMA: 7158.292 km

Apoapsis: 786.942 km

Periapsis: 773.372 km

RAAN: 206.019 deg

Eccentricy: 0.00094783

Argument of periapsis: 247.3055 deg

Mean anomaly: 112.7132 deg

Mean motion: 14.3347011 rev/day

Mean motion (dot): 0.00005117 rev/day2

B* drag term: 0.0018458428 1/REarth

Two-line elements (TLE)

Creation date: Dec. 10, 2025, 7:58 p.m.

Reference frame: TEME

Reference center: EARTH

Epoch: Dec. 10, 2025, 9:02 a.m. UTC

TLE line 0: 0 COSMOS 1275 DEB

TLE line 1: 1 12698U 81053AS 25344.37662989 .00005117 00000-0 18458-2 0 9993

TLE line 2: 2 12698 82.9000 206.0190 0009478 247.3055 112.7132 14.33470110264428

Live tracking on map

Real-time ground track for satellite COSMOS 1275 DEB.

In-orbit conjunctions

A list of the most updated potential collisions computed for object COSMOS 1275 DEB.

Target Orbit TCA Probability of collision Miss distance Type
FENGYUN 1C DEB SSO 2025-12-07 14:28:30 0.0001311338 207.0 (m) DEBRIS
DMSP 5D-2 F13 DEB SSO 2025-08-10 14:33:48 0.0003357867 65.0 (m) DEBRIS
CZ-6A DEB LEO 2024-12-16 11:31:50 0.0006017724 432.0 (m) DEBRIS
CZ-6A DEB LEO 2024-11-23 21:43:57 0.0001773395 791.0 (m) DEBRIS
CZ-6A DEB LEO 2024-11-23 13:26:32 0.0001346599 75.0 (m) DEBRIS

Associated space launch

Navigation satellite providing location information for the Tsiklon-B navigation system

COSMOS 1275 DEB was lifted into orbit during the mission ‘Kosmos-3M | Parus 27’, on board a Kosmos-3M space rocket.

The launch took place on June 4, 1981, 3:41 p.m. from 132/2.

For more information about the launch, click the button.

Launch to space Kosmos-3M | Parus 27
Kosmos-3M | Parus 27

Agency: N/A

Status: Launch Successful

Launch date: June 4, 1981, 3:41 p.m. UTC

Rocket: Kosmos-3M

Launch pad: 132/2

Location: Plesetsk Cosmodrome, Russian Federation

...

Latest news about this satellite

There are no fresh news available about this satellite. Check back as we update our databases every day.


Newsletter sign-up

Weekly statistics, charts and insights to help you stay on top of the space industry.